SCP
0 0 0 0 0 0 0 0 0 0 0 0 0 0 0 0 0 0 0 0 0 0 0 0 0 0 0 0 0 0 0 0 0 0 0 0 0 0 0 0 0 0 0 0 0 0 0
0 0 0 0 0 0 0 0 0 0 0 0 0 0 0 0 0 0 0 0 0 0 0 0 0 0 0 0 0 0 0 0 0 0 0 0 0 0 0 0 0 0 0 0 0 0 0
0 0 0 0 0 0 0 0 0 0 0 0 0 0 0 0 0 0 0 0 0 0 0 0 0 0 0 0 0 0 0 0 0 0 0 0 0 0 0 0 0 0 0 0 0 0 0
0 0 0 0 0 0 0 0 0 0 0 0 0 0 0 0 0 0 0 0 0 0 0 0 0 0 0 0 0 0 0 0 0 0 0 -0 0 0 0 0 0 0 0 0 0 0 0
0 0 0 0 0 0 0 0 0 0 0 0 0 0 0 0 0 0 0 0 0 0 0 0 0 0 0 0 0 0 0 0 0 0 0 0 0 0 0 0 0 0 0 0 0 0 0
0 0 0 0 0 0 0 0 0 0 0 0 0 0 0 0 0 0 0 0 0 0 0 0 0 0 0 0 0 0 0 0 0 0 0 0 0 0 0 0 0 0 0 0 -0 0 0
0 0 0 0 0 0 0 0 0 0 0 0 0 0 0 0 0 0 0 0 0 0 0 0 0 0 0 0 0 0 0 0 0 0 0 0 0 0 0 0 0 0 0 0 0 0 0
0 0 0 0 0 0 0 0 0 0 0 0 0 0 0 0 0 0 0 0 0 0 0 0 0 0 0 0 0 0 0 0 0 0 0 0 0 0 0 0 0 0 0 0 0 0 0
0 0 0 0 0 0 0 0 0 0 0 0 0 0 0 0 0 0 0 0 0 0 0 -0 0 0 0 0 0 0 0 0 0 0 0 0 0 0 0 0 0 0 0 0 0 0 0
0 0 0 0 0 0 0 0 0 0 0 0 0 0 0 0 0 0 0 0 0 0 0 0 0 0 0 0 0 -0 0 0 0 0 0 0 0 0 0 0 0 0 0 0 0 0 0
-0 -0 -0 0 0 -0 -0 -0 0 0 0 0 0 0 0 0 0 0 0 0 0 0 0 0 0 0 0 0 0 0 0 0 0 0 0 0 0 0 0 0 0 0 0 0 0 0 0
-0 -0 0 0 -0 -0 -0 -0 -0 -0 0 0 0 0 0 0 0 0 0 0 0 0 0 0 0 0 0 0 0 0 0 0 0 0 0 0 0 0 0 0 0 0 0 0 0 0 0
-0 -0 0 0 0 -0 -0 0 -0 -0 0 0 0 0 0 0 0 0 0 0 0 0 0 0 0 0 0 0 0 0 0 0 0 0 0 0 0 0 0 0 0 0 0 0 0 0 0
0 0 0 0 -0 -0 -0 -0 0 0 0 0 0 0 0 0 0 0 0 0 0 0 0 0 0 0 0 0 0 0 0 0 0 0 0 0 0 0 0 0 0 0 0 0 0 0 0
0 0 0 0 0 -0 -0 0 0 0 0 0 0 0 0 0 0 0 0 0 0 0 0 0 0 0 0 0 0 0 0 0 0 0 0 0 0 0 0 0 0 0 0 0 0 0 0
0 0 0 0 0 0 0 0 0 0 0 0 0 0 0 0 0 0 0 0 0 0 0 0 0 0 0 0 0 0 0 0 0 0 0 0 0 0 0 0 0 0 0 0 0 0 0
0 0 0 0 0 0 0 0 0 0 0 0 0 0 0 0 0 0 0 0 0 0 0 0 0 0 0 0 0 0 0 0 0 0 0 0 0 0 0 0 0 0 0 0 0 0 0
0 0 0 0 0 0 0 0 0 0 0 0 0 0 0 0 0 0 0 0 0 0 0 0 0 0 0 0 0 0 0 0 0 0 0 0 0 0 0 0 0 0 0 0 0 0 0
0 0 0 0 0 0 0 0 0 0 0 0 0 0 0 0 0 0 0 0 0 0 0 0 0 0 0 0 0 0 0 0 0 0 0 0 0 0 0 0 0 0 0 0 0 0 0
0 0 -0 0 0 0 0 0 0 0 0 0 0 0 0 0 0 0 0 0 0 0 0 0 0 0 0 0 0 0 0 0 0 0 0 0 0 0 0 0 0 0 0 0 0 0 0
0 0 -0 0 0 0 0 0 0 0 0 0 0 -0 0 0 0 0 0 0 0 0 0 0 0 0 0 0 0 0 0 0 0 0 0 0 0 0 0 0 0 0 0 0 0 0 0
0 0 0 0 0 0 0 0 0 0 0 -0 0 0 0 0 0 0 0 0 0 0 0 0 0 0 0 0 0 0 0 0 0 0 0 0 0 0 0 0 0 0 0 0 0 0 0
0 0 0 0 0 0 0 0 0 0 -0 0 0 0 0 0 0 0 0 0 0 -0 0 0 0 0 0 0 0 0 0 0 0 0 0 0 0 0 0 0 0 0 -0 0 0 0 0
0 0 0 -0 0 0 0 0 0 0 0 0 0 0 0 0 -0 -0 -0 0 0 0 0 0 0 0 0 0 0 0 0 0 0 0 0 0 0 0 0 0 0 0 0 0 0 0 0
0 0 0 0 0 0 0 0 0 0 -0 0 0 0 -0 0 -0 -0 -0 -0 0 -0 0 0 0 0 0 0 0 0 0 0 0 0 0 0 0 0 0 0 0 0 0 0 0 0 0
0 0 0 0 0 0 0 0 0 -0 -0 0 0 0 0 -0 0 -0 0 0 -0 -0 0 0 0 0 0 0 0 0 0 0 0 0 0 0 0 0 0 0 0 0 0 0 0 0 0
0 0 0 0 0 0 0 0 0 0 0 0 0 0 0 0 -0 -0 0 0 0 0 -0 -0 0 0 0 0 0 0 0 0 0 0 0 0 0 0 0 0 0 0 0 0 0 0 0
0 0 -0 0 -0 0 0 0 0 0 -0 0 0 0 0 0 0 -0 -0 0 0 0 0 0 0 0 0 0 0 0 0 0 0 0 0 0 0 0 0 0 -0 0 0 0 0 0 0
0 0 0 -0 -0 0 0 0 0 0 -0 -0 -0 -0 0 0 0 0 -0 -0 -0 0 0 0 0 0 0 0 0 0 0 0 0 0 0 0 0 0 0 0 0 0 0 0 0 0 0
Wind_Speed_500mb
42 42 43 43 44 45 46 47 47 48 47 47 47 45 44 43 42 41 41 40 37 35 34 35 33 29 26 21 54 18 16 6 7 40 57 47 33 21 16 13 11 18 30 11 13 10 13
42 44 47 49 48 48 48 50 49 48 47 46 47 47 47 47 46 46 46 44 39 37 36 36 36 33 29 31 38 31 52 49 30 15 59 56 31 35 11 12 22 15 21 2 1 2 3
44 44 43 42 47 52 53 50 48 46 47 47 46 46 47 49 50 50 49 44 41 39 39 38 39 40 42 66 24 25 16 20 36 27 38 57 46 29 21 11 16 9 9 5 5 5 2
40 42 46 46 47 45 45 50 57 53 49 49 47 47 46 48 50 51 49 44 41 40 41 39 40 39 35 44 37 44 58 41 16 20 22 36 44 24 11 3 1 8 6 3 1 6 2
39 42 42 41 46 50 52 49 47 54 53 45 48 49 47 46 49 49 47 43 39 40 40 37 30 25 26 31 35 40 50 39 32 20 21 24 35 19 13 13 10 4 9 10 9 10 5
43 45 46 46 46 46 45 48 50 46 48 49 46 43 45 47 44 44 44 37 32 34 32 19 18 10 39 23 15 14 19 44 27 31 28 24 13 16 12 16 23 15 7 5 8 3 11
46 43 42 45 49 49 48 47 44 50 50 46 50 49 47 42 41 38 37 16 12 9 30 28 22 24 5 17 16 15 20 41 36 33 22 24 20 32 34 21 12 15 9 9 10 13 8
52 52 53 51 46 44 46 45 47 48 51 54 47 46 46 44 36 30 24 7 1 7 20 45 63 53 51 23 10 19 25 31 27 26 22 14 35 26 23 20 16 11 8 10 12 7 9
55 55 55 51 54 52 50 48 45 43 45 46 46 44 41 42 39 23 17 13 12 8 13 23 55 59 81 48 26 27 34 26 23 26 41 39 20 26 22 20 18 12 12 8 16 3 10
61 63 65 62 59 53 53 53 50 48 43 44 39 39 39 36 30 19 16 22 17 10 10 12 20 26 55 37 22 65 35 27 11 39 27 25 20 29 23 27 24 21 23 12 11 8 17
65 67 67 66 66 64 59 51 54 46 45 43 34 31 38 32 18 12 11 22 13 14 12 10 15 8 27 59 24 39 59 38 29 21 21 30 30 30 24 24 23 19 12 10 7 12 5
64 67 70 71 71 67 64 60 54 51 45 40 39 29 33 37 31 28 22 13 17 8 24 8 19 23 26 50 22 20 36 33 24 16 14 36 11 22 28 15 25 10 8 6 5 4 8
61 67 72 75 74 71 67 65 57 53 48 42 36 41 32 46 32 26 24 15 11 19 1 15 15 19 29 27 35 23 39 42 33 33 37 19 28 11 15 17 8 17 13 10 8 8 12
62 67 72 76 73 70 67 64 59 54 47 44 39 34 46 45 38 32 20 11 24 24 36 4 9 22 27 30 34 28 38 41 42 42 30 33 27 31 18 35 26 27 26 15 10 8 15
65 70 74 76 77 69 66 64 55 54 47 39 37 40 47 41 49 34 15 26 30 28 33 15 12 20 17 26 18 30 42 46 49 47 34 37 36 14 28 17 33 14 14 12 17 3 8
69 75 79 82 81 74 71 61 53 47 41 31 35 38 48 41 52 45 14 49 29 18 10 47 32 19 30 38 23 35 38 34 39 44 32 14 19 27 22 22 15 27 25 10 5 10 14
75 81 88 89 80 70 65 53 45 38 34 25 31 18 25 43 55 35 25 32 42 31 18 23 45 18 16 23 36 34 24 22 46 41 39 27 17 8 19 31 38 14 17 5 5 6 16
76 84 89 86 72 65 57 45 27 29 29 28 21 8 28 42 20 9 30 26 21 23 62 14 8 38 15 20 29 29 35 25 48 37 45 37 21 29 20 6 30 44 36 31 20 19 8
75 82 81 78 74 65 53 40 26 28 28 29 11 11 42 62 17 8 29 39 41 24 24 10 10 5 22 16 11 23 18 14 34 44 39 25 21 25 25 9 6 26 24 27 14 8 26
73 81 79 76 71 62 34 19 4 15 27 33 8 6 11 38 16 9 35 36 27 34 39 35 30 15 10 20 6 7 17 1 22 38 43 47 20 49 39 24 28 20 25 29 32 20 21
70 76 76 70 61 52 31 19 10 19 26 30 23 9 6 5 11 32 18 16 38 26 33 22 20 24 10 16 22 20 6 8 7 13 20 30 37 34 44 34 33 38 38 36 33 32 28
71 71 73 65 53 47 34 19 9 17 21 37 12 7 12 4 9 33 14 21 40 24 40 34 27 13 4 7 4 17 2 7 5 10 16 3 15 27 38 31 41 46 43 39 43 41 37
69 63 74 64 47 45 41 22 18 22 30 20 16 22 4 1 5 8 17 36 25 36 18 58 25 36 18 7 6 6 7 9 1 2 6 9 15 15 29 23 33 39 52 46 43 34 33
67 65 72 56 47 41 40 30 19 26 31 31 11 7 2 5 8 6 4 23 40 27 40 16 54 25 15 9 7 7 6 8 4 5 2 9 10 6 12 20 26 6 24 48 42 38 40
66 61 60 58 45 38 38 28 27 19 31 33 28 9 1 7 6 14 24 28 35 45 35 27 17 25 20 12 4 8 5 3 11 13 11 5 5 9 11 19 11 11 8 25 29 38 35
62 57 61 58 57 31 25 15 12 1 14 19 15 14 6 5 3 8 14 21 16 24 24 20 9 15 7 9 11 15 16 13 13 11 18 16 2 8 7 16 31 18 16 21 27 22 35
59 59 58 57 63 28 21 12 10 2 9 14 11 15 5 7 7 23 5 2 1 11 15 16 16 10 21 11 7 14 18 9 17 27 16 12 9 22 17 11 10 11 19 39 28 12 26
56 54 53 62 54 28 21 18 7 3 11 12 9 12 18 8 19 7 9 8 9 4 3 8 12 11 10 16 13 16 18 25 18 16 23 23 17 14 14 16 29 13 25 28 14 13 22
52 53 52 57 55 29 22 21 18 3 9 11 10 7 7 16 18 25 17 16 10 12 9 2 5 3 2 12 11 10 14 14 28 30 26 22 21 25 17 15 5 46 34 53 33 23 26
Wind_Direction_500mb
295 292 288 286 285 284 285 284 283 284 283 282 280 280 281 283 284 284 283 283 283 283 283 285 289 289 289 256 244 238 212 220 330 208 206 204 192 192 218 206 201 231 260 214 257 264 217
314 313 310 303 294 286 284 285 285 287 287 287 285 284 281 280 279 278 277 278 279 281 281 282 284 284 280 251 277 261 246 251 252 232 205 209 205 205 201 210 217 231 232 219 142 281 189
302 301 300 301 305 309 309 302 295 292 286 286 287 287 288 285 282 277 274 274 277 278 278 278 279 278 264 250 259 278 256 256 239 238 220 212 211 186 192 220 245 264 193 138 177 208 3
315 313 303 292 296 295 298 302 307 304 296 288 287 287 287 286 284 282 283 281 278 276 275 275 275 271 253 274 264 248 247 246 219 212 222 235 215 209 189 205 128 214 99 171 106 184 243
323 318 312 308 296 293 287 293 296 302 305 302 294 293 288 284 284 286 287 286 281 274 275 277 266 233 265 258 252 250 242 231 217 230 205 196 182 189 166 217 207 186 248 275 293 214 159
328 324 319 315 311 305 300 293 289 289 294 301 303 301 307 294 286 286 286 290 285 274 264 250 224 232 244 231 230 243 220 217 196 179 157 167 168 180 181 200 220 235 202 198 246 242 213
308 312 318 318 321 315 308 296 293 279 281 287 291 302 309 310 291 290 291 309 285 239 218 207 204 215 206 210 238 223 222 182 189 167 177 179 191 207 203 207 214 225 195 227 242 256 257
328 315 306 304 305 307 311 309 299 293 286 282 282 288 295 305 310 289 297 289 14 273 295 244 241 239 231 237 301 209 188 165 178 186 150 158 214 201 180 194 186 181 190 238 270 271 222
336 334 330 323 308 299 302 302 301 298 292 289 280 273 287 295 306 284 271 224 214 312 268 267 238 231 227 222 222 225 182 193 186 174 188 201 196 160 172 173 183 188 210 219 286 312 239
346 349 350 346 336 327 299 288 296 296 292 289 286 270 272 284 295 258 242 213 233 242 283 252 208 233 211 207 235 228 199 189 188 199 183 207 158 167 179 194 197 219 218 239 247 267 292
343 340 339 337 335 333 326 314 286 288 293 296 286 280 265 267 251 256 175 174 199 170 274 173 179 175 185 182 165 201 210 206 205 172 178 192 171 180 187 203 184 241 165 205 230 252 295
338 335 332 327 324 322 321 321 309 282 282 285 282 269 256 253 251 241 223 186 161 199 242 210 160 169 155 197 205 138 173 194 196 173 209 212 177 190 205 189 191 161 133 93 95 176 249
338 335 331 326 321 315 311 309 309 300 272 277 275 267 250 246 246 255 221 177 190 224 39 188 181 172 173 179 203 177 181 186 184 182 203 185 200 188 193 206 136 176 190 238 236 219 268
341 340 339 335 325 320 310 306 297 300 283 265 267 264 256 249 240 236 224 200 218 225 211 108 141 166 184 159 207 197 183 192 200 200 189 197 209 197 181 213 203 196 206 232 238 241 292
334 333 330 331 331 317 313 306 294 283 286 262 269 256 254 248 227 216 203 202 222 196 195 201 155 166 185 189 183 193 208 203 193 191 191 197 216 175 183 189 197 176 200 231 247 52 260
333 333 332 330 325 323 315 306 291 274 276 261 260 259 251 234 208 197 202 228 226 208 188 209 204 182 186 189 186 193 185 208 200 198 200 170 198 207 187 197 197 204 161 176 192 227 252
337 335 335 330 322 318 315 305 289 261 261 243 247 248 236 225 205 189 208 226 234 261 334 204 221 208 196 174 195 196 204 196 190 186 196 176 190 150 177 199 205 179 202 188 231 233 256
340 341 340 339 333 322 315 307 290 243 238 215 232 243 195 194 189 221 213 222 298 307 250 303 267 229 207 179 187 196 202 199 189 161 193 190 199 208 195 178 227 206 207 206 225 211 231
343 343 342 340 338 330 322 313 265 232 215 198 213 243 205 190 211 211 232 241 261 289 305 269 281 303 217 191 199 211 191 216 181 185 178 168 202 200 219 202 168 212 199 207 220 229 224
345 347 342 342 345 342 331 334 243 219 190 200 195 254 208 200 213 236 225 227 238 265 270 262 289 300 242 218 211 157 194 152 184 194 186 176 189 208 212 230 197 201 190 203 201 219 230
344 347 346 345 350 354 348 330 272 196 194 197 197 227 224 213 217 222 224 244 229 232 261 253 247 246 321 233 216 212 156 170 96 178 159 185 217 218 224 204 194 212 213 206 212 224 227
346 346 346 346 347 352 343 318 261 206 189 211 195 224 152 290 307 228 212 206 231 241 221 244 245 240 149 313 318 188 220 27 103 56 160 161 203 204 217 208 215 224 222 212 217 219 230
349 348 351 346 344 346 345 311 253 223 214 213 203 223 346 211 247 191 208 227 219 221 242 236 253 246 268 280 2 349 300 293 332 58 112 139 152 163 215 203 219 242 229 220 219 212 218
352 350 349 352 355 352 352 354 255 217 217 217 204 188 129 281 255 252 263 225 221 237 223 247 228 248 226 275 294 251 250 255 222 239 347 126 136 171 184 140 219 246 205 215 217 214 217
353 349 353 352 347 344 351 351 11 218 217 212 230 275 261 307 295 290 245 236 230 219 224 217 186 218 232 247 206 225 229 290 222 213 187 192 121 147 188 210 257 200 181 180 198 225 215
352 351 354 349 350 341 347 350 353 189 194 209 221 239 235 258 99 315 267 250 198 204 218 221 202 192 168 183 200 213 198 201 185 181 194 155 218 206 152 219 233 207 185 207 189 229 208
354 355 358 357 358 356 3 354 350 229 208 203 211 218 267 269 305 345 317 92 129 170 218 228 215 197 207 198 178 210 216 224 216 219 158 173 179 209 210 247 269 243 173 158 197 197 203
358 357 0 5 3 6 16 16 9 106 172 194 241 229 250 282 299 285 330 31 27 319 185 133 169 206 186 193 205 200 225 210 233 241 214 198 182 205 202 224 245 163 156 188 196 204 205
2 4 8 10 16 28 30 22 22 125 178 182 265 225 301 269 279 302 287 252 234 280 337 320 49 140 196 197 201 212 217 203 213 226 238 232 219 222 211 229 88 180 179 207 213 208 200
Wind_Speed_850mb
42 42 43 43 44 45 46 47 47 48 47 47 47 45 44 43 42 41 41 40 37 35 34 35 33 29 26 21 54 18 16 6 7 40 57 47 33 21 16 13 11 18 30 11 13 10 13
42 44 47 49 48 48 48 50 49 48 47 46 47 47 47 47 46 46 46 44 39 37 36 36 36 33 29 31 38 31 52 49 30 15 59 56 31 35 11 12 22 15 21 2 1 2 3
44 44 43 42 47 52 53 50 48 46 47 47 46 46 47 49 50 50 49 44 41 39 39 38 39 40 42 66 24 25 16 20 36 27 38 57 46 29 21 11 16 9 9 5 5 5 2
40 42 46 46 47 45 45 50 57 53 49 49 47 47 46 48 50 51 49 44 41 40 41 39 40 39 35 44 37 44 58 41 16 20 22 36 44 24 11 3 1 8 6 3 1 6 2
39 42 42 41 46 50 52 49 47 54 53 45 48 49 47 46 49 49 47 43 39 40 40 37 30 25 26 31 35 40 50 39 32 20 21 24 35 19 13 13 10 4 9 10 9 10 5
43 45 46 46 46 46 45 48 50 46 48 49 46 43 45 47 44 44 44 37 32 34 32 19 18 10 39 23 15 14 19 44 27 31 28 24 13 16 12 16 23 15 7 5 8 3 11
46 43 42 45 49 49 48 47 44 50 50 46 50 49 47 42 41 38 37 16 12 9 30 28 22 24 5 17 16 15 20 41 36 33 22 24 20 32 34 21 12 15 9 9 10 13 8
52 52 53 51 46 44 46 45 47 48 51 54 47 46 46 44 36 30 24 7 1 7 20 45 63 53 51 23 10 19 25 31 27 26 22 14 35 26 23 20 16 11 8 10 12 7 9
55 55 55 51 54 52 50 48 45 43 45 46 46 44 41 42 39 23 17 13 12 8 13 23 55 59 81 48 26 27 34 26 23 26 41 39 20 26 22 20 18 12 12 8 16 3 10
61 63 65 62 59 53 53 53 50 48 43 44 39 39 39 36 30 19 16 22 17 10 10 12 20 26 55 37 22 65 35 27 11 39 27 25 20 29 23 27 24 21 23 12 11 8 17
65 67 67 66 66 64 59 51 54 46 45 43 34 31 38 32 18 12 11 22 13 14 12 10 15 8 27 59 24 39 59 38 29 21 21 30 30 30 24 24 23 19 12 10 7 12 5
64 67 70 71 71 67 64 60 54 51 45 40 39 29 33 37 31 28 22 13 17 8 24 8 19 23 26 50 22 20 36 33 24 16 14 36 11 22 28 15 25 10 8 6 5 4 8
61 67 72 75 74 71 67 65 57 53 48 42 36 41 32 46 32 26 24 15 11 19 1 15 15 19 29 27 35 23 39 42 33 33 37 19 28 11 15 17 8 17 13 10 8 8 12
62 67 72 76 73 70 67 64 59 54 47 44 39 34 46 45 38 32 20 11 24 24 36 4 9 22 27 30 34 28 38 41 42 42 30 33 27 31 18 35 26 27 26 15 10 8 15
65 70 74 76 77 69 66 64 55 54 47 39 37 40 47 41 49 34 15 26 30 28 33 15 12 20 17 26 18 30 42 46 49 47 34 37 36 14 28 17 33 14 14 12 17 3 8
69 75 79 82 81 74 71 61 53 47 41 31 35 38 48 41 52 45 14 49 29 18 10 47 32 19 30 38 23 35 38 34 39 44 32 14 19 27 22 22 15 27 25 10 5 10 14
75 81 88 89 80 70 65 53 45 38 34 25 31 18 25 43 55 35 25 32 42 31 18 23 45 18 16 23 36 34 24 22 46 41 39 27 17 8 19 31 38 14 17 5 5 6 16
76 84 89 86 72 65 57 45 27 29 29 28 21 8 28 42 20 9 30 26 21 23 62 14 8 38 15 20 29 29 35 25 48 37 45 37 21 29 20 6 30 44 36 31 20 19 8
75 82 81 78 74 65 53 40 26 28 28 29 11 11 42 62 17 8 29 39 41 24 24 10 10 5 22 16 11 23 18 14 34 44 39 25 21 25 25 9 6 26 24 27 14 8 26
73 81 79 76 71 62 34 19 4 15 27 33 8 6 11 38 16 9 35 36 27 34 39 35 30 15 10 20 6 7 17 1 22 38 43 47 20 49 39 24 28 20 25 29 32 20 21
70 76 76 70 61 52 31 19 10 19 26 30 23 9 6 5 11 32 18 16 38 26 33 22 20 24 10 16 22 20 6 8 7 13 20 30 37 34 44 34 33 38 38 36 33 32 28
71 71 73 65 53 47 34 19 9 17 21 37 12 7 12 4 9 33 14 21 40 24 40 34 27 13 4 7 4 17 2 7 5 10 16 3 15 27 38 31 41 46 43 39 43 41 37
69 63 74 64 47 45 41 22 18 22 30 20 16 22 4 1 5 8 17 36 25 36 18 58 25 36 18 7 6 6 7 9 1 2 6 9 15 15 29 23 33 39 52 46 43 34 33
67 65 72 56 47 41 40 30 19 26 31 31 11 7 2 5 8 6 4 23 40 27 40 16 54 25 15 9 7 7 6 8 4 5 2 9 10 6 12 20 26 6 24 48 42 38 40
66 61 60 58 45 38 38 28 27 19 31 33 28 9 1 7 6 14 24 28 35 45 35 27 17 25 20 12 4 8 5 3 11 13 11 5 5 9 11 19 11 11 8 25 29 38 35
62 57 61 58 57 31 25 15 12 1 14 19 15 14 6 5 3 8 14 21 16 24 24 20 9 15 7 9 11 15 16 13 13 11 18 16 2 8 7 16 31 18 16 21 27 22 35
59 59 58 57 63 28 21 12 10 2 9 14 11 15 5 7 7 23 5 2 1 11 15 16 16 10 21 11 7 14 18 9 17 27 16 12 9 22 17 11 10 11 19 39 28 12 26
56 54 53 62 54 28 21 18 7 3 11 12 9 12 18 8 19 7 9 8 9 4 3 8 12 11 10 16 13 16 18 25 18 16 23 23 17 14 14 16 29 13 25 28 14 13 22
52 53 52 57 55 29 22 21 18 3 9 11 10 7 7 16 18 25 17 16 10 12 9 2 5 3 2 12 11 10 14 14 28 30 26 22 21 25 17 15 5 46 34 53 33 23 26
Wind_Direction_850mb
295 292 288 286 285 284 285 284 283 284 283 282 280 280 281 283 284 284 283 283 283 283 283 285 289 289 289 256 244 238 212 220 330 208 206 204 192 192 218 206 201 231 260 214 257 264 217
314 313 310 303 294 286 284 285 285 287 287 287 285 284 281 280 279 278 277 278 279 281 281 282 284 284 280 251 277 261 246 251 252 232 205 209 205 205 201 210 217 231 232 219 142 281 189
302 301 300 301 305 309 309 302 295 292 286 286 287 287 288 285 282 277 274 274 277 278 278 278 279 278 264 250 259 278 256 256 239 238 220 212 211 186 192 220 245 264 193 138 177 208 3
315 313 303 292 296 295 298 302 307 304 296 288 287 287 287 286 284 282 283 281 278 276 275 275 275 271 253 274 264 248 247 246 219 212 222 235 215 209 189 205 128 214 99 171 106 184 243
323 318 312 308 296 293 287 293 296 302 305 302 294 293 288 284 284 286 287 286 281 274 275 277 266 233 265 258 252 250 242 231 217 230 205 196 182 189 166 217 207 186 248 275 293 214 159
328 324 319 315 311 305 300 293 289 289 294 301 303 301 307 294 286 286 286 290 285 274 264 250 224 232 244 231 230 243 220 217 196 179 157 167 168 180 181 200 220 235 202 198 246 242 213
308 312 318 318 321 315 308 296 293 279 281 287 291 302 309 310 291 290 291 309 285 239 218 207 204 215 206 210 238 223 222 182 189 167 177 179 191 207 203 207 214 225 195 227 242 256 257
328 315 306 304 305 307 311 309 299 293 286 282 282 288 295 305 310 289 297 289 14 273 295 244 241 239 231 237 301 209 188 165 178 186 150 158 214 201 180 194 186 181 190 238 270 271 222
336 334 330 323 308 299 302 302 301 298 292 289 280 273 287 295 306 284 271 224 214 312 268 267 238 231 227 222 222 225 182 193 186 174 188 201 196 160 172 173 183 188 210 219 286 312 239
346 349 350 346 336 327 299 288 296 296 292 289 286 270 272 284 295 258 242 213 233 242 283 252 208 233 211 207 235 228 199 189 188 199 183 207 158 167 179 194 197 219 218 239 247 267 292
343 340 339 337 335 333 326 314 286 288 293 296 286 280 265 267 251 256 175 174 199 170 274 173 179 175 185 182 165 201 210 206 205 172 178 192 171 180 187 203 184 241 165 205 230 252 295
338 335 332 327 324 322 321 321 309 282 282 285 282 269 256 253 251 241 223 186 161 199 242 210 160 169 155 197 205 138 173 194 196 173 209 212 177 190 205 189 191 161 133 93 95 176 249
338 335 331 326 321 315 311 309 309 300 272 277 275 267 250 246 246 255 221 177 190 224 39 188 181 172 173 179 203 177 181 186 184 182 203 185 200 188 193 206 136 176 190 238 236 219 268
341 340 339 335 325 320 310 306 297 300 283 265 267 264 256 249 240 236 224 200 218 225 211 108 141 166 184 159 207 197 183 192 200 200 189 197 209 197 181 213 203 196 206 232 238 241 292
334 333 330 331 331 317 313 306 294 283 286 262 269 256 254 248 227 216 203 202 222 196 195 201 155 166 185 189 183 193 208 203 193 191 191 197 216 175 183 189 197 176 200 231 247 52 260
333 333 332 330 325 323 315 306 291 274 276 261 260 259 251 234 208 197 202 228 226 208 188 209 204 182 186 189 186 193 185 208 200 198 200 170 198 207 187 197 197 204 161 176 192 227 252
337 335 335 330 322 318 315 305 289 261 261 243 247 248 236 225 205 189 208 226 234 261 334 204 221 208 196 174 195 196 204 196 190 186 196 176 190 150 177 199 205 179 202 188 231 233 256
340 341 340 339 333 322 315 307 290 243 238 215 232 243 195 194 189 221 213 222 298 307 250 303 267 229 207 179 187 196 202 199 189 161 193 190 199 208 195 178 227 206 207 206 225 211 231
343 343 342 340 338 330 322 313 265 232 215 198 213 243 205 190 211 211 232 241 261 289 305 269 281 303 217 191 199 211 191 216 181 185 178 168 202 200 219 202 168 212 199 207 220 229 224
345 347 342 342 345 342 331 334 243 219 190 200 195 254 208 200 213 236 225 227 238 265 270 262 289 300 242 218 211 157 194 152 184 194 186 176 189 208 212 230 197 201 190 203 201 219 230
344 347 346 345 350 354 348 330 272 196 194 197 197 227 224 213 217 222 224 244 229 232 261 253 247 246 321 233 216 212 156 170 96 178 159 185 217 218 224 204 194 212 213 206 212 224 227
346 346 346 346 347 352 343 318 261 206 189 211 195 224 152 290 307 228 212 206 231 241 221 244 245 240 149 313 318 188 220 27 103 56 160 161 203 204 217 208 215 224 222 212 217 219 230
349 348 351 346 344 346 345 311 253 223 214 213 203 223 346 211 247 191 208 227 219 221 242 236 253 246 268 280 2 349 300 293 332 58 112 139 152 163 215 203 219 242 229 220 219 212 218
352 350 349 352 355 352 352 354 255 217 217 217 204 188 129 281 255 252 263 225 221 237 223 247 228 248 226 275 294 251 250 255 222 239 347 126 136 171 184 140 219 246 205 215 217 214 217
353 349 353 352 347 344 351 351 11 218 217 212 230 275 261 307 295 290 245 236 230 219 224 217 186 218 232 247 206 225 229 290 222 213 187 192 121 147 188 210 257 200 181 180 198 225 215
352 351 354 349 350 341 347 350 353 189 194 209 221 239 235 258 99 315 267 250 198 204 218 221 202 192 168 183 200 213 198 201 185 181 194 155 218 206 152 219 233 207 185 207 189 229 208
354 355 358 357 358 356 3 354 350 229 208 203 211 218 267 269 305 345 317 92 129 170 218 228 215 197 207 198 178 210 216 224 216 219 158 173 179 209 210 247 269 243 173 158 197 197 203
358 357 0 5 3 6 16 16 9 106 172 194 241 229 250 282 299 285 330 31 27 319 185 133 169 206 186 193 205 200 225 210 233 241 214 198 182 205 202 224 245 163 156 188 196 204 205
2 4 8 10 16 28 30 22 22 125 178 182 265 225 301 269 279 302 287 252 234 280 337 320 49 140 196 197 201 212 217 203 213 226 238 232 219 222 211 229 88 180 179 207 213 208 200